User: anonymous   Login
Location: Cardiff
(53.7833°N, 113.6000°W)
Time: 13:09:24
(UTC+00:00)
Language:

NOAA 18 - Orbit

View from above orbital plane
View from above orbital plane
View from above satellite
View from above satellite

Ground track
Ground track

The orbit data is extracted from the following two-line orbital elements,

1 28654U 05018A   23335.17909461  .00000415  00000-0  24574-3 0  9997
2 28654  98.8958  48.6483 0013335 266.6214  93.3433 14.13068239955156
Epoch (UTC): 01 December 2023 04:17:53
Eccentricity: 0.0013335
inclination: 98.8958°
perigee height: 839 km
apogee height: 858 km
right ascension of ascending node: 48.6483°
argument of perigee: 266.6214°
revolutions per day: 14.13068239
mean anomaly at epoch: 93.3433°
orbit number at epoch: 95515

The dashed part of the orbit path shows where the satellite is in the earth's shadow,  

DLR